FW7612 Weather Reports


Display with metric or nautical units.
time (UTC)temp
F
wind
direction
speed
MPH
gust
MPH
rain 1hr
in
rain 24hr
in
rain mn
in
humidity
%
barometer
mb
20260505100954 53 191 6.0 17.0 0.00 0.00 0.00 85 1011.6
20260505100454 53 206 8.0 17.0 0.00 0.00 0.00 85 1011.8
20260505095954 52 207 7.0 18.0 0.00 0.00 0.00 86 1011.7
20260505095454 52 200 7.0 16.0 0.00 0.00 0.00 86 1011.7
20260505094954 52 193 8.0 17.0 0.00 0.00 0.00 86 1011.8
20260505094454 52 207 6.0 15.0 0.00 0.00 0.00 86 1011.8
20260505093954 51 194 8.0 16.0 0.00 0.00 0.00 86 1011.8
20260505093454 51 191 5.0 13.0 0.00 0.00 0.00 86 1011.8
20260505092954 51 188 7.0 18.0 0.00 0.00 0.00 86 1011.6
20260505092454 51 196 6.0 12.0 0.00 0.00 0.00 86 1011.7
20260505091954 51 188 6.0 12.0 0.00 0.00 0.00 86 1011.6
20260505091454 51 203 6.0 16.0 0.00 0.00 0.00 86 1011.7
20260505090954 51 201 8.0 12.0 0.00 0.00 0.00 86 1011.7
20260505090454 51 203 5.0 12.0 0.00 0.00 0.00 86 1011.6
20260505085954 51 195 7.0 12.0 0.00 0.00 0.00 86 1011.6
20260505085454 51 193 6.0 13.0 0.00 0.00 0.00 85 1011.7
20260505084954 51 196 7.0 10.0 0.00 0.00 0.00 85 1011.7
20260505084454 52 206 6.0 11.0 0.00 0.00 0.00 85 1011.7
20260505083954 52 205 5.0 12.0 0.00 0.00 0.00 85 1011.6
20260505083454 52 196 6.0 14.0 0.00 0.00 0.00 84 1011.7
20260505082954 52 206 5.0 12.0 0.00 0.00 0.00 84 1011.7
20260505082454 52 200 7.0 15.0 0.00 0.00 0.00 84 1011.7
20260505081954 52 207 8.0 16.0 0.00 0.00 0.00 84 1011.8
20260505081454 52 208 5.0 14.0 0.00 0.00 0.00 83 1011.9
20260505080954 52 209 9.0 15.0 0.00 0.00 0.00 83 1011.9
20260505080454 53 209 8.0 14.0 0.00 0.00 0.00 83 1011.9
20260505075954 53 217 9.0 15.0 0.00 0.00 0.00 83 1011.9
20260505075454 53 212 11.0 16.0 0.00 0.00 0.00 83 1011.9
20260505074954 53 211 7.0 22.0 0.00 0.00 0.00 83 1012.0
20260505074454 53 219 12.0 21.0 0.00 0.00 0.00 83 1012.0
20260505073954 53 218 12.0 22.0 0.00 0.00 0.00 83 1012.1
20260505073454 53 214 7.0 18.0 0.00 0.00 0.00 83 1012.0
20260505072954 53 217 10.0 20.0 0.00 0.00 0.00 83 1012.0
20260505072454 53 214 10.0 18.0 0.00 0.00 0.00 83 1011.9
20260505071954 53 222 10.0 19.0 0.00 0.00 0.00 83 1011.9
20260505071454 53 224 9.0 23.0 0.00 0.00 0.00 83 1011.9
20260505070954 53 217 10.0 25.0 0.00 0.00 0.00 83 1011.9
20260505070454 53 215 10.0 18.0 0.00 0.00 0.00 83 1011.9
20260505065954 53 212 10.0 20.0 0.00 0.00 0.00 83 1011.9
20260505065454 53 210 9.0 18.0 0.00 0.00 0.00 82 1011.9
20260505064954 53 220 11.0 20.0 0.00 0.00 0.00 82 1011.8
20260505064454 53 214 11.0 20.0 0.00 0.00 0.00 82 1011.7
20260505063954 53 217 10.0 25.0 0.00 0.00 0.00 82 1011.8
20260505063454 53 217 12.0 26.0 0.00 0.00 0.00 82 1011.8
20260505062955 53 220 15.0 23.0 0.00 0.00 0.00 82 1011.7
20260505062507 53 220 12.0 26.0 0.00 0.00 0.00 82 1011.7
20260505061954 53 220 13.0 25.0 0.00 0.00 0.00 82 1011.8
20260505061454 53 224 10.0 21.0 0.00 0.00 0.00 82 1011.8
20260505060954 53 221 8.0 20.0 0.00 0.00 0.00 82 1011.8
20260505060454 53 221 11.0 17.0 0.00 0.00 0.00 83 1011.9
20260505055954 53 219 10.0 15.0 0.00 0.00 0.00 83 1011.9
20260505055454 53 226 10.0 19.0 0.00 0.00 0.00 83 1011.9
20260505054954 53 212 9.0 17.0 0.00 0.00 0.00 83 1011.9
20260505054454 52 215 8.0 16.0 0.00 0.00 0.00 84 1011.9
20260505053954 52 215 9.0 16.0 0.00 0.00 0.00 84 1011.9
20260505053454 52 218 10.0 16.0 0.00 0.00 0.00 84 1012.0
20260505052954 52 214 8.0 18.0 0.00 0.00 0.00 84 1012.0
20260505052453 52 215 10.0 19.0 0.00 0.00 0.00 84 1011.9
20260505051954 52 220 9.0 15.0 0.00 0.00 0.00 84 1011.9
20260505051454 52 204 7.0 14.0 0.00 0.00 0.00 84 1011.9
20260505050954 52 214 8.0 17.0 0.00 0.00 0.00 84 1012.0
20260505050453 52 211 7.0 14.0 0.00 0.00 0.00 83 1012.0
20260505041453 52 198 7.0 15.0 0.00 0.00 0.00 81 1012.2
20260505040953 52 202 8.0 16.0 0.00 0.00 0.00 80 1012.3
20260505040453 52 210 10.0 19.0 0.00 0.00 0.00 80 1012.3
20260505035953 52 203 7.0 15.0 0.00 0.00 0.00 80 1012.4
20260505035454 52 213 9.0 15.0 0.00 0.00 0.00 80 1012.4
20260505034953 52 208 9.0 18.0 0.00 0.00 0.00 80 1012.4
20260505034454 52 206 8.0 14.0 0.00 0.00 0.00 80 1012.5
20260505033953 52 206 8.0 15.0 0.00 0.00 0.00 79 1012.5
20260505033454 52 210 7.0 15.0 0.00 0.00 0.00 79 1012.5
20260505032953 52 207 5.0 13.0 0.00 0.00 0.00 78 1012.4
20260505032453 52 204 6.0 19.0 0.00 0.00 0.00 78 1012.4
20260505031953 52 203 6.0 13.0 0.00 0.00 0.00 78 1012.3
20260505031453 53 199 5.0 13.0 0.00 0.00 0.00 77 1012.3
20260505030953 53 206 7.0 14.0 0.00 0.00 0.00 77 1012.5
20260505030353 53 213 8.0 18.0 0.00 0.00 0.00 76 1012.4
20260505025853 53 218 9.0 19.0 0.00 0.00 0.00 76 1012.4
20260505025353 53 207 9.0 18.0 0.00 0.00 0.00 76 1012.5
20260505024854 53 215 9.0 17.0 0.00 0.00 0.00 76 1012.5
20260505024353 53 209 8.0 17.0 0.00 0.00 0.00 76 1012.5
20260505023853 53 213 10.0 18.0 0.00 0.00 0.00 75 1012.5
20260505023353 53 207 10.0 19.0 0.00 0.00 0.00 75 1012.4
20260505022853 53 210 10.0 18.0 0.00 0.00 0.00 75 1012.4
20260505022353 53 216 12.0 21.0 0.00 0.00 0.00 75 1012.5
20260505021853 53 205 11.0 23.0 0.00 0.00 0.00 75 1012.5
20260505021353 54 213 10.0 20.0 0.00 0.00 0.00 75 1012.5
20260505020853 54 208 7.0 23.0 0.00 0.00 0.00 74 1012.4
20260505020353 54 219 12.0 24.0 0.00 0.00 0.00 74 1012.4
20260505015853 54 209 11.0 24.0 0.00 0.00 0.00 74 1012.3
20260505015353 54 215 14.0 27.0 0.00 0.00 0.00 74 1012.2
20260505014853 54 218 11.0 24.0 0.00 0.00 0.00 74 1012.2
20260505014353 54 215 9.0 21.0 0.00 0.00 0.00 73 1012.2
20260505013853 54 220 13.0 21.0 0.00 0.00 0.00 73 1012.1
20260505013353 54 220 15.0 25.0 0.00 0.00 0.00 72 1012.1
20260505012853 54 218 14.0 27.0 0.00 0.00 0.00 72 1012.0
20260505012353 54 214 13.0 28.0 0.00 0.00 0.00 71 1011.8
20260505011853 54 215 12.0 25.0 0.00 0.00 0.00 70 1011.7
20260505011353 54 219 15.0 29.0 0.00 0.00 0.00 70 1011.6
20260505010853 54 219 13.0 22.0 0.00 0.00 0.00 69 1011.5
20260505010353 54 220 10.0 23.0 0.00 0.00 0.00 68 1011.6
20260505005853 54 216 14.0 26.0 0.00 0.00 0.00 68 1011.5
20260505005353 54 219 15.0 27.0 0.00 0.00 0.00 68 1011.4
20260505004853 54 218 10.0 28.0 0.00 0.00 0.00 67 1011.4
20260505004353 54 211 9.0 28.0 0.00 0.00 0.00 67 1011.3
20260505003853 54 212 13.0 29.0 0.00 0.00 0.00 66 1011.3
20260505003353 54 215 13.0 26.0 0.00 0.00 0.00 65 1011.2
20260505002853 55 213 12.0 25.0 0.00 0.00 0.00 63 1011.1
20260505002353 55 211 14.0 29.0 0.00 0.00 0.00 62 1011.0
20260505001853 55 215 13.0 29.0 0.00 0.00 0.00 62 1010.8
20260505001353 55 220 13.0 27.0 0.00 0.00 0.00 61 1010.8
20260505000853 55 213 12.0 24.0 0.00 0.00 0.00 61 1010.7
20260505000353 55 226 14.0 29.0 0.00 0.00 0.00 60 1010.7
20260504235853 55 218 15.0 26.0 0.00 0.00 0.00 60 1010.6
20260504235353 55 219 13.0 27.0 0.00 0.00 0.00 60 1010.5
20260504234853 55 220 13.0 25.0 0.00 0.00 0.00 59 1010.5
20260504234353 55 221 16.0 30.0 0.00 0.00 0.00 59 1010.5
20260504233853 56 217 12.0 26.0 0.00 0.00 0.00 59 1010.4
20260504233353 56 216 13.0 24.0 0.00 0.00 0.00 58 1010.4
20260504232853 56 217 15.0 35.0 0.00 0.00 0.00 57 1010.4
20260504232353 57 218 11.0 20.0 0.00 0.00 0.00 57 1010.3
20260504231853 57 222 15.0 28.0 0.00 0.00 0.00 57 1010.2
20260504231353 57 214 12.0 32.0 0.00 0.00 0.00 57 1010.2
20260504230853 57 215 15.0 26.0 0.00 0.00 0.00 56 1010.1
20260504230353 57 218 15.0 28.0 0.00 0.00 0.00 57 1010.1
20260504225853 58 218 13.0 27.0 0.00 0.00 0.00 57 1010.0
20260504225353 58 213 14.0 29.0 0.00 0.00 0.00 57 1010.0
20260504224853 58 212 14.0 37.0 0.00 0.00 0.00 56 1010.0
20260504224353 58 210 12.0 30.0 0.00 0.00 0.00 56 1010.0
20260504223853 58 215 15.0 28.0 0.00 0.00 0.00 55 1010.0
20260504223352 59 215 15.0 29.0 0.00 0.00 0.00 55 1009.9
20260504222853 59 220 15.0 27.0 0.00 0.00 0.00 54 1009.9
20260504222353 59 213 14.0 27.0 0.00 0.00 0.00 55 1010.0
20260504221853 60 206 12.0 28.0 0.00 0.00 0.00 54 1010.1
20260504221353 60 203 10.0 26.0 0.00 0.00 0.00 54 1010.1
20260504220852 60 210 17.0 29.0 0.00 0.00 0.00 54 1009.8
20260504220353 60 212 14.0 30.0 0.00 0.00 0.00 53 1009.8
20260504215853 61 209 12.0 25.0 0.00 0.00 0.00 53 1010.0
20260504215353 61 214 14.0 29.0 0.00 0.00 0.00 51 1010.1
20260504214853 61 222 11.0 31.0 0.00 0.00 0.00 51 1010.1
20260504214352 61 214 15.0 30.0 0.00 0.00 0.00 51 1010.1
20260504213852 61 214 16.0 29.0 0.00 0.00 0.00 51 1010.0
20260504213353 61 217 16.0 30.0 0.00 0.00 0.00 51 1009.9
20260504212852 62 227 13.0 28.0 0.00 0.00 0.00 50 1010.0
20260504212353 62 207 12.0 29.0 0.00 0.00 0.00 50 1010.1
20260504211852 62 212 14.0 31.0 0.00 0.00 0.00 50 1010.2
20260504211353 62 216 17.0 28.0 0.00 0.00 0.00 49 1010.0
20260504210853 62 220 20.0 32.0 0.00 0.00 0.00 48 1009.9
20260504210353 62 216 15.0 29.0 0.00 0.00 0.00 48 1009.9
20260504205853 63 221 15.0 32.0 0.00 0.00 0.00 48 1009.9
20260504205352 62 221 20.0 34.0 0.00 0.00 0.00 47 1009.8
20260504204853 63 212 15.0 32.0 0.00 0.00 0.00 47 1009.7
20260504204352 64 220 16.0 31.0 0.00 0.00 0.00 44 1009.8
20260504203853 64 211 14.0 31.0 0.00 0.00 0.00 45 1009.7
20260504203352 64 216 17.0 36.0 0.00 0.00 0.00 41 1009.5
20260504202852 65 219 12.0 26.0 0.00 0.00 0.00 42 1009.5
20260504202410 64 234 15.0 42.0 0.00 0.00 0.00 40 1009.5
20260504201852 63 224 24.0 41.0 0.00 0.00 0.00 39 1009.4
20260504201352 63 235 22.0 43.0 0.00 0.00 0.00 39 1009.5
20260504200852 63 229 23.0 41.0 0.00 0.00 0.00 40 1009.6
20260504200352 64 226 22.0 41.0 0.00 0.00 0.00 39 1009.4
20260504195852 64 228 15.0 42.0 0.00 0.00 0.00 41 1009.7
20260504195352 64 233 23.0 41.0 0.00 0.00 0.00 38 1009.8
20260504194852 64 227 21.0 41.0 0.00 0.00 0.00 39 1009.7
20260504194353 64 235 16.0 40.0 0.00 0.00 0.00 40 1009.6
20260504193852 64 226 21.0 47.0 0.00 0.00 0.00 39 1009.2
20260504193352 64 236 18.0 42.0 0.00 0.00 0.00 38 1009.6
20260504192852 65 236 23.0 44.0 0.00 0.00 0.00 37 1009.6
20260504192352 65 237 21.0 35.0 0.00 0.00 0.00 38 1009.4
20260504191852 65 236 15.0 34.0 0.00 0.00 0.00 40 1009.7
20260504191352 64 239 23.0 41.0 0.00 0.00 0.00 40 1009.7
20260504190852 64 248 20.0 45.0 0.00 0.00 0.00 42 1009.6
20260504190352 64 238 20.0 38.0 0.00 0.00 0.00 40 1009.8
20260504185852 65 232 18.0 31.0 0.00 0.00 0.00 40 1010.0
20260504185352 65 232 20.0 36.0 0.00 0.00 0.00 40 1010.1
20260504184852 64 243 22.0 37.0 0.00 0.00 0.00 39 1009.9
20260504184353 65 236 19.0 43.0 0.00 0.00 0.00 41 1009.9
20260504183852 65 247 16.0 37.0 0.00 0.00 0.00 41 1009.9
20260504183352 64 245 22.0 34.0 0.00 0.00 0.00 42
20260504182852 65 234 17.0 35.0 0.00 0.00 0.00 42 1009.7
20260504182352 65 240 16.0 36.0 0.00 0.00 0.00 43 1009.7
20260504181852 65 228 17.0 33.0 0.00 0.00 0.00 43 1009.6
20260504181352 65 230 18.0 36.0 0.00 0.00 0.00 43 1009.7
20260504180852 65 231 18.0 34.0 0.00 0.00 0.00 42 1009.2
20260504180352 66 234 17.0 36.0 0.00 0.00 0.00 41 1009.7
20260504175852 65 232 17.0 33.0 0.00 0.00 0.00 40 1009.8
20260504175352 65 230 21.0 38.0 0.00 0.00 0.00 40 1009.7
20260504174852 66 238 15.0 35.0 0.00 0.00 0.00 39 1009.8
20260504174352 65 247 19.0 33.0 0.00 0.00 0.00 40 1009.6
20260504173852 65 239 21.0 44.0 0.00 0.00 0.00 38 1009.8
20260504173352 66 237 21.0 35.0 0.00 0.00 0.00 38 1010.0
20260504172852 65 239 19.0 43.0 0.00 0.00 0.00 36 1009.8
20260504172352 65 238 19.0 36.0 0.00 0.00 0.00 37 1009.9
20260504171852 66 254 19.0 30.0 0.00 0.00 0.00 43 1009.8
20260504171352 64 246 18.0 43.0 0.00 0.00 0.00 41 1009.7
20260504170852 64 245 18.0 37.0 0.00 0.00 0.00 42 1009.9
20260504170352 64 249 20.0 42.0 0.00 0.00 0.00 39 1009.7
20260504160252 64 238 20.0 31.0 0.00 0.00 0.00 41 1010.3
20260504150702 63 252 13.0 24.0 0.00 0.00 0.00 46 1010.8
20260504150152 63 244 11.0 26.0 0.00 0.00 0.00 47 1010.7
20260504141151 61 251 14.0 26.0 0.00 0.00 0.00 55 1011.1
20260504140652 61 248 18.0 24.0 0.00 0.00 0.00 52 1011.0
20260504140151 61 250 14.0 25.0 0.00 0.00 0.00 53 1011.0
20260504130653 58 258 17.0 23.0 0.00 0.00 0.00 57 1011.4
20260504130151 58 249 14.0 24.0 0.00 0.00 0.00 55 1011.4
20260504120151 55 240 12.0 19.0 0.00 0.00 0.00 61 1011.5
20260504110651 51 223 9.0 18.0 0.00 0.00 0.00 73 1011.5
20260504110151 50 206 6.0 12.0 0.00 0.00 0.00 73 1011.6